Regional Weather Roundup
Issued by NWS

Home | Current Version | Previous Version | Graphics & Text | Print | Product List | Glossary Off
Versions: 1 2 3 4 5 6 7 8 9 10 11 12 13 14 15 16 17 18 19 20 21 22 23 24 25 26 27 28 29 30 31 32 33 34 35 36 37 38 39 40 41 42 43 44 45 46 47 48 49 50

000
ASUS43 KDTX 101910
RWRMI
MICHIGAN HOURLY REGIONAL WEATHER ROUNDUP
NATIONAL WEATHER SERVICE DETROIT/PONTIAC MI
200 PM EST WED FEB 10 2016

NOTE: "FAIR" INDICATES FEW OR NO CLOUDS BELOW 12,000 FEET WITH NO
SIGNIFICANT WEATHER AND/OR OBSTRUCTION TO VISIBILITY.

MIZ047>049-052>055-059>063-066>070-074>076-081>083-102000-
SOUTHEAST LOWER MICHIGAN

CITY           SKY/WX    TMP DP  RH WIND       PRES   REMARKS
ADRIAN         PTSUNNY   21   7  54 NW17G24   29.85S WCI   7
ALMA           CLOUDY    20   9  63 NW16      29.84S WCI   6
ANN ARBOR      CLOUDY    20   7  57 W17G26    29.82F WCI   5
BAD AXE        CLOUDY    15   8  75 NW10      29.80S WCI   2
CARO           CLOUDY    16   5  62 NW12      29.81F WCI   3
DETROIT CITY   LGT SNOW  19   9  65 NW9G22    29.83S WCI   8
DETROIT        CLOUDY    21   7  54 W14G24    29.84S WCI   8
FLINT          CLOUDY    20   9  62 NW9       29.82F WCI   9
GROSSE ILE     CLOUDY    21   3  45 W12       29.82S WCI   9
HILLSDALE      PTSUNNY   20  11  68 W13G23    29.82F WCI   8
HOWELL         CLOUDY    19  12  75 NW9       29.81S HAZE    WCI   7

CITY           SKY/WX    TMP DP  RH WIND       PRES   REMARKS
JACKSON        CLOUDY    20   6  55 NW17G25   29.83F WCI   5
LAMBERTVILLE   CLOUDY    22  12  66 W13G18    29.86S WCI  10
LANSING        CLOUDY    19   5  54 W18       29.85S WCI   4
LAPEER         CLOUDY    17   7  66 NW15      29.81S WCI   2
MASON          CLOUDY    18  10  69 W14       29.83F WCI   5
MONROE         CLOUDY    22   8  54 NW12G23   29.84S WCI  11
MT. CLEMENS    FLURRIES  19   8  64 NW15      29.80S WCI   5
PONTIAC        CLOUDY    17   8  67 NW17      29.79S WCI   1
PORT HOPE        N/A     14   7  73 NW20G28   29.78S WCI  -3
PORT HURON     CLOUDY    18   7  62 NW13G23   29.81S WCI   4
TRI CITIES     CLOUDY    20   3  48 NW16G22   29.83F WCI   6
MIDLAND        CLOUDY    19   5  56 N10G18    29.82F WCI   7
TROY           CLOUDY    20  12  71 W13G18    29.84R WCI   7
SAGINAW HB     CLOUDY    19  10  68 NW12      29.83S WCI   7
$$
MIZ043>046-050>051-056>058-064>065-071>073-077>080-102000-
SOUTHWEST LOWER MICHIGAN

CITY           SKY/WX    TMP DP  RH WIND       PRES   REMARKS
BATTLE CREEK   PTSUNNY   19   7  59 NW17G26   29.86S WCI   4
BENTON HARBOR  CLOUDY    20   8  60 NW15G22   29.95S WCI   6
BIG RAPIDS     PTSUNNY   16   5  61 NW10G16   29.84S WCI   4
COLDWATER      PTSUNNY   20   9  60 W15       29.86S WCI   7
FREMONT        PTSUNNY   18   1  48 NW20G26   29.89S WCI   2
HOLLAND        FLURRIES  20   9  62 NW14G20   29.92S WCI   7
GRAND RAPIDS   PTSUNNY   20   6  55 NW17G25   29.88S WCI   5
IONIA          CLOUDY    20   4  50 NW13G21   29.85S WCI   7
KALAMAZOO      LGT SNOW  19  10  68 NW16      29.88F WCI   4
LUDINGTON      LGT SNOW  15   7  72 NW10G18   29.93S WCI   2
MARSHALL       CLOUDY    22   8  56 W10G16    29.85S WCI  11
MOUNT PLEASANT CLOUDY    21   3  47 W14G20    29.82F WCI   8
MUSKEGON       LGT SNOW  17   9  70 NW20G26   29.92S WCI   1
SOUTH HAVEN    LGT SNOW  19  10  66 NW16G24   29.93F WCI   5
$$
MIZ016>042-102000-
NORTHERN LOWER MICHIGAN

CITY           SKY/WX    TMP DP  RH WIND       PRES   REMARKS
ALPENA         CLOUDY    11   0  61 NW15G23   29.80F WCI  -5
BEAVER ISLAND  CLOUDY    13   0  55 NW14G25   29.89S HAZE    WCI  -2
BELLAIRE       CLOUDY    14   7  73 N9        29.88S HAZE    WCI   2
CADILLAC       CLOUDY    14   6  69 N13       29.80S HAZE    WCI   0
CHARLEVOIX     CLOUDY    13   5  68 NW16G24   29.90S HAZE    WCI  -3
FRANKFORT      LGT SNOW  15   7  69 N13G20    29.91S WCI   2
GAYLORD        PTSUNNY   11  -2  56 NW15G24   29.78  WCI  -5
GRAYLING       LGT SNOW  14   5  67 NW16G26   29.81R WCI  -2
HARBOR SPRINGS CLOUDY    11  -2  57 NW13G25   29.86S WCI  -4
HOUGHTON LAKE  CLOUDY    16  -1  47 NW15G29   29.79S WCI   1
MANISTEE       CLOUDY    16   3  57 NW17      29.91S WCI   0
OSCODA         CLOUDY    14   3  61 NW16G23   29.80S WCI  -2
PELLSTON       CLOUDY    11   0  61 NW18G28   29.86F WCI  -7
ROGERS CITY    CLOUDY    11   2  65 NW17G23   29.82S WCI  -6
TRAVERSE CITY  LGT SNOW  15   4  61 N14G24    29.88S WCI   0
$$
MIZ007>008-015-102000-
EASTERN UPPER MICHIGAN

CITY           SKY/WX    TMP DP  RH WIND       PRES   REMARKS
KINROSS        CLOUDY     9   1  72 NW18G25   29.84R WCI -10
MACKINAC ISLAN CLOUDY    10   1  67 NW16G25   29.85R HAZE    WCI  -8
NEWBERRY       LGT SNOW   9   3  78 N10       29.87S WCI  -5
S. S. MARIE    PTSUNNY    8  -8  48 NW13      29.85F WCI  -8
MUNISING         N/A     11   3  70 N22       29.94S WCI  -8
$$
MIZ004>006-011>014-085-102000-
CENTRAL UPPER MICHIGAN

CITY           SKY/WX    TMP DP  RH WIND       PRES   REMARKS
MANISTIQUE     LGT SNOW  12   6  77 N18       29.90F VSB 3/4 WCI  -6
ESCANABA       PTSUNNY   14   0  52 NW16G24   29.95F WCI  -2
MENOMINEE      MOSUNNY   14  -6  41 N15G21    29.98S WCI  -1
SAWYER-GWINN   LGT SNOW   7   3  85 N20G29    29.91S VSB 3/4 WCI -13
$$
MIZ001>003-009>011-084-102000-
WESTERN UPPER MICHIGAN

CITY           SKY/WX    TMP DP  RH WIND       PRES   REMARKS
IRON MOUNTAIN  PTSUNNY    9  -5  53 N15G23    29.96R WCI  -8
HOUGHTON       LGT SNOW   8  -1  66 N9        30.00S WCI  -5
COPPER HARBOR    N/A     11   6  81 NE22G29   30.02S WCI  -8
IRONWOOD       CLOUDY     9   0  66 N7        30.01F WCI  -3
$$

ABBREVIATIONS USED IN REMARKS
   TC - TEMPERATURE IN CELSIUS
  WCI - WIND CHILL INDEX
   HX - HEAT INDEX
  VSB - VISIBILITY




USA.gov is the U.S. government's official web portal to all federal, state and local government web resources and services.